Hourly Data Report for August 07, 2002

SHERBROOKE A
QUEBEC

45°26'00.000" N
71°41'00.000" W
241.40 m
7028124
71610
YSC

Download Data

Hourly Data (August 2002)
Hourly Data Report for August 7, 2002
TIME
LST
Temp Definition
°C
Dew Point Definition
°C
Rel Hum Definition
%
Precip. Amount Definition
mm

Wind Dir Definition
10's deg

Wind Spd Definition
km/h
Visibility Definition
km
Stn Press Definition
kPa
Hmdx Definition


Wind Chill Definition


Weather Definition


00:00 12.1 11.1 94   29 11 15.0 98.51      
01:00 12.5 11.4 93     0 15.0 98.52      
02:00 12.3 11.5 95   20 6 15.0 98.48      
03:00 12.7 11.7 94     0 15.0 98.49      
04:00 11.9 11.1 95   27 4 15.0 98.50      
05:00 11.5 10.9 96     0 15.0 98.54      
06:00 12.4 11.6 95   16 6 15.0 98.60      
07:00 14.2 12.5 90   32 7 24.1 98.64     Mostly Cloudy
08:00 15.3 12.1 81   32 9 24.1 98.66     Mainly Clear
09:00 17.0 12.8 76   30 20 24.1 98.66     Mainly Clear
10:00 18.9 13.8 72   30 15 24.1 98.67     Mainly Clear
11:00 19.9 11.9 60   31 19 24.1 98.64     Mainly Clear
12:00 21.3 12.8 58   31 15 24.1 98.67     Mostly Cloudy
13:00 20.8 11.7 56   33 15 24.1 98.66     Mainly Clear
14:00 21.6 12.0 54   30 22 24.1 98.65     Mainly Clear
15:00 21.3 11.4 53   30 11 24.1 98.66     Mostly Cloudy
16:00 20.2 11.3 57   29 17 24.1 98.67     Mostly Cloudy
17:00 21.7 12.4 55   29 15 15.0 98.68      
18:00 20.0 11.4 58   30 15 15.0 98.69      
19:00 18.3 11.1 63   31 15 15.0 98.74      
20:00 16.3 11.3 72   30 13 15.0 98.83      
21:00 14.0 12.5 91   23 7 15.0 98.85      
22:00 13.5 12.5 94   23 9 15.0 98.90      
23:00 13.6 12.4 92   25 9 15.0 98.93     Rain

Notes on Data Quality.

Legend

  • E = Estimated
  • M = Missing
  • NA = Not Available*
  • [empty] = Indicates an unobserved value
Date modified: